Regional Weather Roundup
Issued by NWS Spokane, WA

Home | Current Version | Previous Version | Text Only | Print | Product List | Glossary On
Versions: 1 2 3 4 5 6 7 8 9 10 11 12 13 14 15 16 17 18 19 20 21 22 23 24 25 26 27 28 29 30 31 32 33 34 35 36 37 38 39 40 41 42 43 44 45 46 47 48 49 50
000
NZUS01 KOTX 010100
RWROTX
EASTERN WASHINGTON/NORTHERN IDAHO ROUNDUP
NATIONAL WEATHER SERVICE, SPOKANE WA
500 PM PST SAT JAN 31 2015

Note: "fair" indicated few or no clouds below 12,000 feet with no
significant weather and/or obstructions to visibility.

...NORTHEAST WASHINGTON AND NORTHERN IDAHO PANHANDLE...

CITY           SKY/WX    TMP DP  RH WIND       PRES   REMARKS
SPOKANE INTL   CLOUDY    32  27  81 CALM      30.27R
SPOKANE DOWNTO CLOUDY    34  28  79 CALM      30.29F
COEUR D ALENE  CLOUDY    34  27  75 CALM      30.26S
DEER PARK      CLOUDY    32  27  81 E3        30.28S

...SOUTHEAST WASHINGTON AND SOUTHERN IDAHO PANHANDLE...

CITY           SKY/WX    TMP DP  RH WIND       PRES   REMARKS
WALLA WALLA    CLOUDY    37  31  78 CALM      30.29S
PULLMAN/MOSCOW CLOUDY    33  28  81 SW5       30.27S WCI  29
LOWELL           N/A     33  28  81 CALM      30.32R

...COLUMBIA BASIN...

CITY           SKY/WX    TMP DP  RH WIND       PRES   REMARKS
EPHRATA        CLOUDY    36  32  85 CALM      30.30S
MOSES LAKE     CLOUDY    36  30  79 SW3       30.32R
TRI CITIES     CLOUDY    39  33  79 E3        30.34F
HERMISTON      CLOUDY    39  32  76 NE6       30.31F
PENDLETON      CLOUDY    35  31  85 CALM      30.27F

...EAST SLOPES CASCADES...

CITY           SKY/WX    TMP DP  RH WIND       PRES   REMARKS
THE DALLES     CLOUDY    40  32  73 E6        30.32F
YAKIMA         CLOUDY    38  31  76 S5        30.31S
ELLENSBURG     CLOUDY    37  30  75 SE3       30.27S
WENATCHEE      CLOUDY    38  31  76 E7        30.30S
OMAK           CLOUDY    36  29  75 S6        30.30S

...SOUTHERN BRITISH COLUMBIA...

CITY           SKY/WX    TMP DP  RH WIND       PRES   REMARKS

...WESTERN MONTANA...

CITY           SKY/WX    TMP DP  RH WIND       PRES   REMARKS
MISSOULA       PTCLDY    34  25  69 N9        30.16R WCI  27

...NEIGHBORING CITIES...

CITY           SKY/WX    TMP DP  RH WIND       PRES   REMARKS
SEATTLE        CLOUDY    43  39  86 CALM      30.18R



USA.gov is the U.S. government's official web portal to all federal, state and local government web resources and services.